When you browse on this site, cookies collect data to enhance your experience and personalize the content and advertising you see.
Visit our Privacy Policy to learn more. By continuing to use the site, you agree to this use of cookies and data.
  • In Czech Republic
  • List of Countries
  • For 7 days
  • Water Temperature
  • Weather Map
  • Weather Widgets
  • user-avatar
    Login

    Hourly Weather Oktemcy

    Today, 25 May, Monday

    Time Temperature Precipitation Wind Pressure Humidity
    00:00 +10°C° 0 mm 1 mps 752 mmHg 63%
    01:00 +10°C° 0 mm 1 mps 752 mmHg 66%
    02:00 +9°C° 0 mm 1 mps 752 mmHg 69%
    03:00 +8°C° 0 mm 1 mps 752 mmHg 73%
    04:00 +10°C° 0 mm 1 mps 752 mmHg 68%
    05:00 +11°C° 0 mm 1 mps 752 mmHg 63%
    06:00 +13°C° 0 mm 1 mps 752 mmHg 59%
    07:00 +15°C° 0 mm 1 mps 752 mmHg 52%
    08:00 +18°C° 0 mm 1 mps 752 mmHg 45%
    09:00 +19°C° 0 mm 2 mps 751 mmHg 37%
    10:00 +21°C° 0 mm 2 mps 751 mmHg 34%
    11:00 +23°C° 0 mm 2 mps 750 mmHg 31%
    12:00 +24°C° 0 mm 2 mps 750 mmHg 28%
    13:00 +25°C° 0 mm 2 mps 749 mmHg 28%
    14:00 +25°C° 0 mm 2 mps 749 mmHg 27%
    15:00 +26°C° 0 mm 2 mps 748 mmHg 27%
    16:00 +26°C° 0 mm 2 mps 748 mmHg 28%
    17:00 +25°C° 0 mm 2 mps 748 mmHg 29%
    18:00 +25°C° 0 mm 2 mps 748 mmHg 31%
    19:00 +23°C° 0 mm 2 mps 747 mmHg 37%
    20:00 +21°C° 0 mm 1 mps 747 mmHg 43%
    21:00 +19°C° 0 mm 1 mps 747 mmHg 50%
    22:00 +18°C° 0 mm 1 mps 746 mmHg 53%
    23:00 +15°C° 0 mm 1 mps 746 mmHg 56%

    Tomorrow, 26 May, Tuesday

    Time Temperature Precipitation Wind Pressure Humidity
    00:00 +14°C° 0 mm 1 mps 746 mmHg 59%
    01:00 +14°C° 0 mm 2 mps 746 mmHg 60%
    02:00 +13°C° 0 mm 2 mps 746 mmHg 61%
    03:00 +12°C° 0 mm 2 mps 746 mmHg 62%
    04:00 +14°C° 0 mm 2 mps 745 mmHg 59%
    05:00 +15°C° 0 mm 2 mps 745 mmHg 56%
    06:00 +16°C° 0 mm 2 mps 745 mmHg 53%
    07:00 +18°C° 0 mm 2 mps 744 mmHg 48%
    08:00 +20°C° 0 mm 2 mps 744 mmHg 43%
    09:00 +22°C° 0 mm 3 mps 743 mmHg 38%
    10:00 +25°C° 0 mm 3 mps 743 mmHg 33%
    11:00 +26°C° 0 mm 3 mps 742 mmHg 28%
    12:00 +28°C° 0 mm 3 mps 742 mmHg 23%
    13:00 +28°C° 0 mm 3 mps 741 mmHg 23%
    14:00 +28°C° 0 mm 3 mps 740 mmHg 22%
    15:00 +29°C° 0 mm 4 mps 740 mmHg 22%
    16:00 +29°C° 0 mm 3 mps 739 mmHg 23%
    17:00 +29°C° 0 mm 3 mps 739 mmHg 24%
    18:00 +28°C° 0 mm 3 mps 738 mmHg 25%
    19:00 +26°C° 0 mm 3 mps 738 mmHg 33%
    20:00 +24°C° 0 mm 3 mps 738 mmHg 40%
    21:00 +21°C° 0 mm 3 mps 738 mmHg 48%
    22:00 +20°C° 0 mm 2 mps 738 mmHg 51%
    23:00 +18°C° 0 mm 2 mps 737 mmHg 55%

    Day after tomorrow, 27 May, Wednesday

    Time Temperature Precipitation Wind Pressure Humidity
    00:00 +17°C° 0 mm 2 mps 737 mmHg 59%
    01:00 +16°C° 0 mm 2 mps 737 mmHg 61%
    02:00 +16°C° 0 mm 2 mps 737 mmHg 63%
    03:00 +15°C° 0 mm 2 mps 736 mmHg 66%
    04:00 +16°C° 0 mm 2 mps 736 mmHg 63%
    05:00 +17°C° 0 mm 2 mps 736 mmHg 60%
    06:00 +19°C° 0 mm 2 mps 736 mmHg 57%
    07:00 +21°C° 0 mm 2 mps 735 mmHg 51%
    08:00 +24°C° 0 mm 2 mps 735 mmHg 46%
    09:00 +26°C° 0 mm 2 mps 735 mmHg 40%
    10:00 +27°C° 0 mm 3 mps 734 mmHg 37%
    11:00 +27°C° 0 mm 3 mps 734 mmHg 34%
    12:00 +28°C° 0 mm 4 mps 733 mmHg 31%
    13:00 +28°C° 0 mm 4 mps 733 mmHg 31%
    14:00 +28°C° 0 mm 3 mps 732 mmHg 31%
    15:00 +28°C° 0 mm 3 mps 732 mmHg 32%
    16:00 +28°C° 0 mm 3 mps 732 mmHg 32%
    17:00 +27°C° 0 mm 3 mps 731 mmHg 33%
    18:00 +27°C° 0 mm 2 mps 731 mmHg 33%
    19:00 +26°C° 0 mm 3 mps 731 mmHg 37%
    20:00 +24°C° 0 mm 3 mps 730 mmHg 41%
    21:00 +22°C° 0 mm 3 mps 730 mmHg 45%
    22:00 +21°C° 0 mm 3 mps 730 mmHg 49%
    23:00 +20°C° 0 mm 4 mps 730 mmHg 54%

    28 May, Thursday

    Time Temperature Precipitation Wind Pressure Humidity
    00:00 +18°C° 0 mm 4 mps 730 mmHg 58%
    01:00 +17°C° 0 mm 4 mps 731 mmHg 65%
    02:00 +15°C° 0 mm 4 mps 731 mmHg 73%
    03:00 +14°C° 0 mm 4 mps 731 mmHg 80%
    04:00 +13°C° 0.6 mm 4 mps 732 mmHg 84%
    05:00 +13°C° 0.6 mm 4 mps 732 mmHg 87%
    06:00 +12°C° 0.6 mm 3 mps 733 mmHg 91%
    07:00 +12°C° 0.3 mm 3 mps 733 mmHg 87%
    08:00 +12°C° 0.3 mm 3 mps 734 mmHg 83%
    09:00 +13°C° 0.3 mm 3 mps 734 mmHg 79%
    10:00 +14°C° 0.1 mm 3 mps 734 mmHg 67%
    11:00 +17°C° 0.1 mm 4 mps 735 mmHg 55%
    12:00 +19°C° 0.1 mm 4 mps 735 mmHg 42%
    13:00 +18°C° 0.2 mm 4 mps 735 mmHg 46%
    14:00 +17°C° 0.2 mm 5 mps 735 mmHg 49%
    15:00 +16°C° 0.2 mm 5 mps 735 mmHg 52%
    16:00 +15°C° 0.2 mm 6 mps 736 mmHg 56%
    17:00 +14°C° 0.2 mm 6 mps 737 mmHg 59%
    18:00 +13°C° 0.2 mm 6 mps 737 mmHg 63%
    19:00 +12°C° 0 mm 5 mps 738 mmHg 62%
    20:00 +11°C° 0 mm 4 mps 739 mmHg 61%
    21:00 +10°C° 0 mm 4 mps 740 mmHg 60%
    22:00 +8°C° 0 mm 4 mps 741 mmHg 61%
    23:00 +6°C° 0 mm 4 mps 741 mmHg 61%

    29 May, Friday

    Time Temperature Precipitation Wind Pressure Humidity
    00:00 +5°C° 0 mm 3 mps 742 mmHg 62%
    01:00 +4°C° 0 mm 3 mps 742 mmHg 64%
    02:00 +3°C° 0 mm 3 mps 743 mmHg 66%
    03:00 +2°C° 0 mm 3 mps 743 mmHg 67%
    04:00 +3°C° 0 mm 4 mps 743 mmHg 64%
    05:00 +4°C° 0 mm 4 mps 744 mmHg 61%
    06:00 +3°C° 0 mm 5 mps 744 mmHg 58%
    07:00 +5°C° 0 mm 5 mps 744 mmHg 52%
    08:00 +6°C° 0 mm 5 mps 744 mmHg 46%
    09:00 +7°C° 0 mm 5 mps 744 mmHg 40%
    10:00 +8°C° 0 mm 5 mps 744 mmHg 38%
    11:00 +9°C° 0 mm 5 mps 744 mmHg 36%
    12:00 +10°C° 0 mm 5 mps 743 mmHg 34%
    13:00 +10°C° 0 mm 5 mps 743 mmHg 33%
    14:00 +12°C° 0 mm 5 mps 743 mmHg 32%
    15:00 +12°C° 0 mm 5 mps 743 mmHg 30%
    16:00 +12°C° 0 mm 5 mps 743 mmHg 31%
    17:00 +12°C° 0 mm 5 mps 743 mmHg 32%
    18:00 +12°C° 0 mm 4 mps 743 mmHg 32%
    19:00 +11°C° 0 mm 3 mps 744 mmHg 38%
    20:00 +9°C° 0 mm 3 mps 744 mmHg 44%
    21:00 +8°C° 0 mm 2 mps 744 mmHg 50%
    22:00 +7°C° 0 mm 2 mps 744 mmHg 54%
    23:00 +5°C° 0 mm 2 mps 744 mmHg 59%

    30 May, Saturday

    Time Temperature Precipitation Wind Pressure Humidity
    00:00 +4°C° 0 mm 2 mps 744 mmHg 63%
    01:00 +4°C° 0 mm 2 mps 744 mmHg 65%
    02:00 +3°C° 0 mm 2 mps 744 mmHg 67%
    03:00 +3°C° 0 mm 2 mps 745 mmHg 69%
    04:00 +4°C° 0 mm 2 mps 745 mmHg 64%
    05:00 +5°C° 0 mm 2 mps 745 mmHg 59%
    06:00 +7°C° 0 mm 2 mps 745 mmHg 54%
    07:00 +9°C° 0 mm 3 mps 745 mmHg 48%
    08:00 +10°C° 0 mm 3 mps 745 mmHg 42%
    09:00 +12°C° 0 mm 3 mps 745 mmHg 35%
    10:00 +13°C° 0 mm 3 mps 745 mmHg 34%
    11:00 +14°C° 0 mm 3 mps 744 mmHg 32%
    12:00 +14°C° 0 mm 3 mps 744 mmHg 30%
    13:00 +16°C° 0 mm 3 mps 744 mmHg 30%
    14:00 +16°C° 0 mm 2 mps 744 mmHg 29%
    15:00 +17°C° 0 mm 2 mps 744 mmHg 28%
    16:00 +17°C° 0 mm 2 mps 744 mmHg 28%
    17:00 +16°C° 0 mm 2 mps 744 mmHg 29%
    18:00 +16°C° 0 mm 2 mps 744 mmHg 29%
    19:00 +15°C° 0 mm 1 mps 744 mmHg 36%
    20:00 +13°C° 0 mm 1 mps 744 mmHg 43%
    21:00 +11°C° 0 mm 1 mps 745 mmHg 50%
    22:00 +10°C° 0 mm 1 mps 745 mmHg 52%
    23:00 +9°C° 0 mm 1 mps 745 mmHg 54%
    Show more